Weather History for Great Bend, KS

Change the Weather History Date:

Thursday, May 17, 2012

  Actual Average Record
Temperature  
Mean Temperature 72 °F -  
Max Temperature 91 °F 80 °F 94 °F (1964)
Min Temperature 53 °F 54 °F 37 °F (2014)
Cooling Degree Days 7    
Growing Degree Days 22 (Base 50)    
Moisture  
Dew Point 47 °F    
Average Humidity 41    
Maximum Humidity 77    
Minimum Humidity 16    
Precipitation  
Precipitation 0.00 in - - ()
Sea Level Pressure  
Sea Level Pressure 29.87 in    
Wind  
Wind Speed 15 mph (South)    
Max Wind Speed 30 mph    
Max Gust Speed 47 mph    
Visibility 10 miles    
Events      
Averages and records for this station are not official NWS values.
T = Trace of Precipitation, MM = Missing Value Source: NWS Daily Summary

Daily Weather History Graph

Daily Weather History Graph

Search for Another Location

Airport:

Trip Planner

Search our weather history database for the weather conditions in past years. The results will help you decide how hot, cold, wet, or windy it might be!

Date:

Astronomy

May. 17, 2012 Rise Set
Actual Time 6:22 AM CDT 8:42 PM CDT
Civil Twilight 5:52 AM CDT 9:12 PM CDT
Nautical Twilight 5:15 AM CDT 9:49 PM CDT
Astronomical Twilight 4:34 AM CDT 10:29 PM CDT
Moon 4:19 AM CDT (5/17) 5:57 PM CDT (5/17)
Length of Visible Light 15h 19m
Length of Day
14h 19m
Waning Crescent, 9% of the Moon is Illuminated
May 17
Waning Crescent
May 20
New
May 28
First Quarter
Jun 4
Full
Jun 11
Last Quarter

Hourly Weather History & Observations

Time (CDT) Temp. Dew Point Humidity Pressure Visibility Wind Dir Wind Speed Gust Speed Precip Events Conditions
12:15 AM 69.8 °F 51.8 °F 53% 29.98 in 10.0 mi SSE 12.7 mph - N/A   Clear
12:35 AM 68.0 °F 51.8 °F 56% 29.97 in 10.0 mi SSE 12.7 mph - N/A   Clear
12:55 AM 68.0 °F 51.8 °F 56% 29.97 in 10.0 mi SSE 13.8 mph - N/A   Clear
1:15 AM 66.2 °F 51.8 °F 60% 29.97 in 10.0 mi SSE 15.0 mph 18.4 mph N/A   Clear
1:35 AM 66.2 °F 51.8 °F 60% 29.97 in 10.0 mi SSE 12.7 mph - N/A   Clear
2:15 AM 64.4 °F 51.8 °F 64% 29.96 in 10.0 mi SSE 11.5 mph - N/A   Clear
2:35 AM 62.6 °F 51.8 °F 68% 29.96 in 10.0 mi SSE 10.4 mph - N/A   Clear
2:55 AM 60.8 °F 51.8 °F 72% 29.96 in 10.0 mi SSE 9.2 mph - N/A   Clear
3:15 AM 60.8 °F 51.8 °F 72% 29.96 in 10.0 mi SSE 10.4 mph - N/A   Clear
3:35 AM 59.0 °F 51.8 °F 77% 29.95 in 10.0 mi SSE 9.2 mph - N/A   Clear
3:55 AM 59.0 °F 50.0 °F 72% 29.94 in 10.0 mi SSE 10.4 mph - N/A   Clear
4:15 AM 57.2 °F 48.2 °F 72% 29.95 in 10.0 mi SSE 6.9 mph - N/A   Clear
4:35 AM 57.2 °F 48.2 °F 72% 29.95 in 10.0 mi South 6.9 mph - N/A   Clear
4:55 AM 55.4 °F 46.4 °F 72% 29.95 in 10.0 mi South 8.1 mph - N/A   Clear
5:15 AM 53.6 °F 46.4 °F 77% 29.95 in 10.0 mi South 9.2 mph - N/A   Clear
5:35 AM 53.6 °F 44.6 °F 72% 29.95 in 10.0 mi South 9.2 mph - N/A   Clear
5:55 AM 53.6 °F 44.6 °F 72% 29.95 in 10.0 mi South 8.1 mph - N/A   Clear
6:15 AM 53.6 °F 42.8 °F 67% 29.95 in 10.0 mi SSW 8.1 mph - N/A   Clear
6:35 AM 53.6 °F 42.8 °F 67% 29.95 in 10.0 mi SSW 6.9 mph - N/A   Clear
6:55 AM 55.4 °F 44.6 °F 67% 29.95 in 10.0 mi South 9.2 mph - N/A   Clear
7:15 AM 57.2 °F 46.4 °F 67% 29.95 in 10.0 mi South 6.9 mph - N/A   Clear
7:35 AM 60.8 °F 48.2 °F 63% 29.95 in 10.0 mi South 8.1 mph - N/A   Clear
7:55 AM 64.4 °F 50.0 °F 59% 29.94 in 10.0 mi South 10.4 mph - N/A   Clear
8:15 AM 68.0 °F 50.0 °F 52% 29.94 in 10.0 mi South 12.7 mph - N/A   Clear
8:35 AM 71.6 °F 50.0 °F 46% 29.93 in 10.0 mi South 15.0 mph 19.6 mph N/A   Clear
8:55 AM 71.6 °F 50.0 °F 46% 29.93 in 10.0 mi South 16.1 mph 23.0 mph N/A   Clear
9:15 AM 73.4 °F 50.0 °F 44% 29.93 in 10.0 mi SSW 16.1 mph 21.9 mph N/A   Clear
9:35 AM 75.2 °F 50.0 °F 41% 29.92 in 10.0 mi SSW 16.1 mph 25.3 mph N/A   Clear
9:55 AM 80.6 °F 51.8 °F 37% 29.91 in 10.0 mi South 16.1 mph 24.2 mph N/A   Clear
10:15 AM 80.6 °F 50.0 °F 34% 29.91 in 10.0 mi SSW 21.9 mph 32.2 mph N/A   Clear
10:35 AM 82.4 °F 48.2 °F 30% 29.89 in 10.0 mi South 28.8 mph 35.7 mph N/A   Clear
10:55 AM 84.2 °F 48.2 °F 29% 29.89 in 10.0 mi South 29.9 mph 34.5 mph N/A   Clear
11:15 AM 84.2 °F 48.2 °F 29% 29.88 in 10.0 mi South 23.0 mph 33.4 mph N/A   Clear
11:35 AM 86.0 °F 46.4 °F 25% 29.88 in 10.0 mi South 25.3 mph 34.5 mph N/A   Clear
11:55 AM 87.8 °F 46.4 °F 24% 29.87 in 10.0 mi South 24.2 mph 36.8 mph N/A   Clear
12:15 PM 87.8 °F 46.4 °F 24% 29.86 in 10.0 mi South 24.2 mph 35.7 mph N/A   Clear
12:35 PM 89.6 °F 46.4 °F 22% 29.86 in 10.0 mi South 24.2 mph 36.8 mph N/A   Clear
12:55 PM 89.6 °F 48.2 °F 24% 29.85 in 10.0 mi South 23.0 mph 34.5 mph N/A   Clear
1:15 PM 87.8 °F 48.2 °F 25% 29.84 in 10.0 mi South 25.3 mph 39.1 mph N/A   Clear
1:35 PM 91.4 °F 46.4 °F 21% 29.84 in 10.0 mi South 23.0 mph 33.4 mph N/A   Clear
1:55 PM 91.4 °F 44.6 °F 20% 29.83 in 10.0 mi South 26.5 mph 33.4 mph N/A   Clear
2:15 PM 91.4 °F 44.6 °F 20% 29.82 in 10.0 mi South 28.8 mph 35.7 mph N/A   Clear
2:35 PM 91.4 °F 44.6 °F 20% 29.81 in 10.0 mi South 27.6 mph 41.4 mph N/A   Clear
2:55 PM 91.4 °F 44.6 °F 20% 29.80 in 10.0 mi South 24.2 mph 32.2 mph N/A   Clear
3:15 PM 89.6 °F 42.8 °F 20% 29.80 in 10.0 mi South 26.5 mph 33.4 mph N/A   Clear
3:35 PM 89.6 °F 42.8 °F 20% 29.80 in 10.0 mi South 23.0 mph 29.9 mph N/A   Clear
3:55 PM 87.8 °F 42.8 °F 21% 29.79 in 10.0 mi South 23.0 mph 28.8 mph N/A   Clear
4:15 PM 89.6 °F 42.8 °F 20% 29.78 in 10.0 mi South 21.9 mph 28.8 mph N/A   Clear
4:35 PM 91.4 °F 39.2 °F 16% 29.77 in 10.0 mi SSW 25.3 mph 32.2 mph N/A   Clear
4:55 PM 89.6 °F 39.2 °F 17% 29.77 in 10.0 mi South 24.2 mph 27.6 mph N/A   Clear
5:15 PM 89.6 °F 42.8 °F 20% 29.76 in 10.0 mi South 28.8 mph 32.2 mph N/A   Clear
5:35 PM 91.4 °F 41.0 °F 17% 29.76 in 10.0 mi South 24.2 mph 33.4 mph N/A   Clear
5:55 PM 89.6 °F 42.8 °F 20% 29.76 in 10.0 mi South 25.3 mph 31.1 mph N/A   Clear
6:35 PM 87.8 °F 42.8 °F 21% 29.75 in 10.0 mi South 21.9 mph 32.2 mph N/A   Clear
6:55 PM 86.0 °F 42.8 °F 22% 29.75 in 10.0 mi South 19.6 mph 29.9 mph N/A   Clear
7:15 PM 84.2 °F 42.8 °F 23% 29.76 in 10.0 mi South 18.4 mph 25.3 mph N/A   Clear
7:35 PM 84.2 °F 42.8 °F 23% 29.76 in 10.0 mi South 19.6 mph 24.2 mph N/A   Clear
7:55 PM 84.2 °F 42.8 °F 23% 29.76 in 10.0 mi South 15.0 mph - N/A   Clear
8:15 PM 82.4 °F 42.8 °F 25% 29.76 in 10.0 mi SSE 16.1 mph - N/A   Clear
8:35 PM 82.4 °F 42.8 °F 25% 29.77 in 10.0 mi South 12.7 mph - N/A   Clear
8:55 PM 80.6 °F 44.6 °F 28% 29.79 in 10.0 mi South 8.1 mph - N/A   Clear
9:15 PM 78.8 °F 44.6 °F 30% 29.80 in 10.0 mi West 6.9 mph 19.6 mph N/A   Scattered Clouds
9:35 PM 80.6 °F 44.6 °F 28% 29.81 in 10.0 mi WSW 16.1 mph - N/A   Mostly Cloudy
9:55 PM 77.0 °F 44.6 °F 32% 29.82 in 10.0 mi SW 9.2 mph - N/A   Mostly Cloudy
10:15 PM 73.4 °F 48.2 °F 41% 29.82 in 10.0 mi SSW 10.4 mph - N/A   Partly Cloudy
10:35 PM 71.6 °F 48.2 °F 43% 29.83 in 10.0 mi South 10.4 mph - N/A   Clear
10:55 PM 73.4 °F 48.2 °F 41% 29.83 in 10.0 mi SW 12.7 mph 17.3 mph N/A   Partly Cloudy
11:15 PM 73.4 °F 48.2 °F 41% 29.82 in 10.0 mi SSW 23.0 mph 34.5 mph N/A   Partly Cloudy
11:35 PM 75.2 °F 46.4 °F 36% 29.76 in 10.0 mi SSE 18.4 mph 47.2 mph N/A   Scattered Clouds
11:55 PM 73.4 °F 48.2 °F 41% 29.79 in 10.0 mi South 18.4 mph - N/A   Partly Cloudy